Temp_Advection
nan nan nan nan nan nan nan nan nan nan nan nan nan nan nan nan nan nan nan nan nan nan nan nan nan nan nan nan nan nan nan nan nan
nan -0 -0 -0 -0 -0 -0 -0 -0 -0 -0 -0 -0 -0 -0 -0 0 0 0 0 0 -0 -0 -0 -0 -0 0 0 0 -0 -0 -0 nan
nan -0 -0 -0 -0 -0 -0 -0 -0 -0 -0 -0 -0 -0 -0 -0 -0 0 0 0 -0 -0 -0 -0 0 0 -0 -0 -0 -0 0 0 nan
nan -0 -0 -0 -0 -0 -0 -0 -0 -0 -0 -0 -0 -0 -0 -0 -0 -0 0 0 -0 -0 -0 -0 -0 -0 0 -0 -0 -0 0 0 nan
nan -0 -0 -0 -0 -0 -0 -0 -0 -0 -0 -0 -0 -0 -0 -0 -0 -0 -0 -0 -0 -0 -0 -0 -0 -0 -0 -0 -0 -0 -0 -0 nan
nan 0 -0 -0 -0 -0 -0 -0 -0 -0 -0 -0 -0 -0 -0 -0 -0 -0 -0 -0 0 -0 -0 -0 -0 -0 -0 -0 -0 -0 -0 -0 nan
nan -0 -0 -0 -0 -0 -0 -0 -0 -0 -0 -0 -0 -0 -0 -0 -0 -0 -0 -0 -0 -0 -0 -0 -0 -0 -0 -0 -0 -0 -0 -0 nan
nan -0 -0 -0 -0 -0 -0 -0 -0 -0 -0 -0 -0 -0 -0 -0 -0 -0 -0 -0 -0 -0 -0 -0 -0 -0 -0 -0 -0 -0 -0 -0 nan
nan -0 -0 -0 -0 -0 -0 -0 -0 -0 -0 -0 -0 -0 -0 -0 -0 -0 -0 -0 -0 -0 0 -0 0 0 -0 0 -0 -0 -0 -0 nan
nan -0 -0 -0 -0 -0 -0 -0 -0 -0 -0 -0 -0 -0 -0 -0 -0 -0 -0 -0 -0 -0 -0 -0 -0 -0 -0 -0 -0 -0 -0 -0 nan
nan -0 -0 -0 -0 -0 -0 -0 -0 -0 -0 -0 -0 -0 -0 -0 -0 -0 -0 -0 -0 0 0 -0 -0 0 -0 -0 -0 -0 -0 -0 nan
nan -0 -0 0 0 -0 -0 -0 -0 -0 -0 -0 -0 -0 -0 -0 -0 -0 -0 -0 -0 -0 0 0 0 0 -0 -0 -0 -0 -0 -0 nan
nan -0 -0 -0 -0 -0 -0 -0 -0 -0 -0 -0 -0 -0 -0 -0 -0 -0 -0 -0 -0 -0 -0 -0 -0 -0 0 0 -0 0 -0 -0 nan
nan -0 -0 -0 -0 -0 -0 -0 -0 -0 -0 -0 -0 -0 -0 -0 -0 0 0 0 0 0 0 0 0 -0 -0 0 0 0 -0 -0 nan
nan -0 -0 -0 -0 -0 -0 -0 -0 -0 -0 -0 -0 -0 -0 -0 -0 -0 -0 -0 0 0 0 0 0 0 -0 -0 0 -0 0 -0 nan
nan -0 -0 -0 -0 -0 -0 -0 -0 -0 -0 -0 -0 0 0 -0 0 -0 -0 -0 -0 -0 -0 -0 -0 -0 -0 -0 -0 0 0 -0 nan
nan -0 -0 -0 -0 -0 -0 -0 -0 -0 -0 -0 -0 0 0 0 0 0 -0 -0 0 0 -0 -0 -0 -0 -0 -0 -0 -0 -0 0 nan
nan -0 -0 -0 -0 -0 -0 -0 -0 -0 -0 -0 -0 -0 -0 -0 0 0 0 -0 -0 0 0 0 -0 -0 0 0 -0 -0 -0 -0 nan
nan 0 -0 -0 -0 -0 -0 -0 -0 -0 -0 -0 -0 -0 -0 -0 -0 -0 0 0 -0 -0 0 0 -0 -0 -0 0 0 -0 -0 -0 nan
nan nan nan nan nan nan nan nan nan nan nan nan nan nan nan nan nan nan nan nan nan nan nan nan nan nan nan nan nan nan nan nan nan
Wind_Speed
7 7 8 8 9 9 9 9 9 9 9 8 7 6 5 5 4 5 6 7 10 12 13 14 15 16 15 13 11 9 10 9 8
7 8 9 9 9 9 9 9 9 10 10 10 9 8 7 6 5 5 7 8 9 11 13 14 15 15 15 14 13 12 10 9 9
7 8 8 9 9 9 9 9 9 10 10 10 9 9 8 7 6 5 6 7 7 10 12 10 10 10 10 12 13 14 14 13 9
6 7 9 9 9 9 9 9 9 10 10 10 9 10 9 8 7 7 7 7 8 10 8 8 9 9 9 10 11 13 14 15 15
6 7 8 9 9 9 10 10 9 10 10 9 8 8 8 8 7 6 6 7 8 10 8 6 6 6 7 9 10 10 11 12 12
5 7 8 9 9 10 10 11 11 11 10 10 10 9 9 8 7 6 6 7 9 7 6 5 5 4 5 7 8 9 9 9 9
6 7 9 10 11 11 11 11 11 10 10 10 10 9 9 9 6 5 6 6 6 7 6 6 5 4 6 6 6 8 9 8 8
6 8 8 9 9 9 9 10 10 10 9 9 9 10 9 9 7 5 5 6 8 9 9 7 6 4 5 6 5 8 9 9 9
6 7 8 9 9 10 10 10 10 10 10 9 8 8 8 9 9 7 7 7 7 5 2 1 1 4 8 7 9 10 11 10 10
5 7 8 9 9 10 10 10 9 9 8 8 7 7 8 8 9 8 7 7 6 8 7 5 4 4 6 9 13 10 9 7 8
5 7 8 8 9 10 10 10 9 8 8 7 6 7 8 8 8 9 9 7 7 7 8 8 9 8 5 5 9 12 9 6 7
4 6 7 8 9 9 10 10 9 8 8 6 5 5 5 7 8 9 9 9 8 8 7 7 8 8 8 7 8 9 9 8 8
4 6 7 8 8 9 9 8 9 8 7 5 3 4 4 6 7 8 9 9 9 9 8 8 8 8 8 9 10 12 10 8 7
4 6 7 7 8 8 9 9 9 8 7 5 2 3 4 6 7 7 8 9 9 9 9 9 8 8 7 7 6 9 11 10 8
4 5 6 7 7 8 8 9 9 9 8 5 2 1 2 3 5 6 8 9 10 10 11 10 9 8 7 7 4 3 9 9 8
3 4 5 5 6 7 8 9 9 8 8 5 2 0 2 2 4 3 6 7 10 10 11 12 10 9 7 7 7 4 4 2 4
2 3 4 5 6 7 7 8 9 9 9 8 3 1 2 6 1 3 5 7 11 10 10 12 10 10 9 8 9 8 7 8 11
2 3 3 4 5 6 7 8 8 8 8 8 7 4 3 11 3 4 7 7 13 10 9 11 10 9 9 9 11 11 10 11 13
3 3 3 4 4 5 6 7 7 7 7 7 7 6 6 5 6 6 6 10 11 9 11 9 9 9 8 10 10 11 11 12 12
5 4 3 3 4 5 6 6 7 7 7 7 6 6 7 6 7 11 13 10 10 12 8 9 7 8 8 9 10 11 12 13 14
Wind_Direction
38 39 38 34 30 26 22 17 13 11 8 3 358 343 313 298 287 269 258 251 257 255 258 261 267 271 280 278 280 291 279 277 282
44 42 40 33 27 23 20 16 13 12 7 2 359 356 346 318 295 277 271 268 263 266 261 262 266 269 271 270 268 268 281 282 274
48 43 39 29 22 17 14 12 9 6 2 357 355 352 348 340 327 307 285 278 275 273 282 282 276 273 271 269 268 265 262 264 275
47 42 32 23 18 13 10 7 3 359 356 355 350 347 346 340 332 323 309 300 295 293 280 278 280 280 279 278 274 270 267 262 260
50 34 24 25 18 12 5 3 358 354 351 347 346 344 340 334 334 332 324 327 323 316 314 301 290 283 281 275 278 278 275 275 270
37 27 23 18 13 6 360 358 356 356 351 350 346 347 345 340 338 335 336 337 336 337 335 331 318 307 289 288 295 296 292 290 279
26 17 14 12 6 1 357 355 352 351 351 351 351 353 356 359 356 347 347 3 18 9 359 4 1 1 330 332 326 311 302 296 287
16 9 4 1 356 355 355 354 350 348 350 349 356 360 360 3 8 8 10 29 58 47 33 29 31 28 8 10 338 309 310 299 288
0 357 353 351 354 356 359 357 357 354 351 353 359 10 12 18 24 21 20 22 56 47 91 355 21 15 347 345 327 324 308 297 296
350 350 347 347 352 357 358 357 357 360 356 356 2 12 20 24 26 30 20 16 19 26 26 358 356 6 24 358 348 331 329 306 293
345 344 343 347 353 357 360 357 359 2 5 1 0 10 27 27 26 21 20 16 18 13 21 33 28 17 7 24 357 356 339 332 327
339 339 345 349 353 359 1 358 3 7 360 359 360 10 28 31 21 24 22 21 20 18 20 13 9 11 14 357 358 333 328 338 341
341 345 347 351 356 3 4 9 9 6 3 12 20 24 32 41 25 19 21 18 15 12 9 4 3 8 10 19 23 2 353 346 353
338 343 349 353 1 5 5 11 15 16 9 9 40 69 58 58 40 30 24 21 14 7 359 351 351 354 358 1 46 32 10 8 357
334 341 350 357 1 4 6 9 13 13 15 17 41 148 78 41 22 26 31 32 22 20 11 359 352 351 344 343 7 63 49 30 24
322 341 349 354 360 4 7 11 11 12 17 18 14 302 240 326 337 342 13 17 12 9 8 7 359 355 346 334 326 316 271 344 0
303 331 343 351 357 3 5 4 6 9 16 18 17 338 270 330 274 306 343 358 3 357 360 2 5 3 355 346 336 320 295 283 288
282 315 333 345 352 356 356 358 2 4 9 17 22 352 335 334 290 312 329 334 347 352 355 359 3 2 359 355 349 341 334 318 315
261 290 319 334 341 347 349 353 356 358 2 5 6 358 342 338 322 326 325 340 338 348 343 347 359 5 359 351 350 350 343 335 332
247 265 287 308 325 335 340 345 348 347 347 349 349 344 337 333 317 319 318 328 338 345 349 343 343 349 353 349 346 344 341 336 332
Height
1538 1538 1537 1536 1535 1534 1533 1532 1531 1529 1528 1527 1526 1525 1524 1523 1522 1522 1522 1522 1522 1522 1522 1522 1522 1523 1523 1523 1523 1524 1524 1524 1524
1539 1538 1537 1537 1536 1535 1534 1532 1531 1530 1529 1528 1526 1525 1524 1523 1522 1522 1521 1522 1522 1520 1520 1520 1520 1520 1520 1521 1521 1522 1522 1522 1523
1539 1539 1538 1537 1536 1535 1534 1533 1531 1530 1529 1527 1526 1525 1524 1523 1522 1521 1521 1521 1520 1520 1519 1520 1520 1519 1519 1519 1519 1520 1521 1521 1521
1540 1540 1539 1538 1537 1536 1534 1533 1532 1530 1529 1528 1526 1524 1523 1523 1521 1520 1520 1519 1518 1517 1517 1518 1518 1518 1518 1518 1518 1518 1518 1519 1520
1541 1540 1539 1538 1537 1536 1535 1533 1532 1530 1529 1528 1526 1524 1523 1522 1521 1520 1519 1518 1517 1516 1516 1516 1516 1517 1516 1516 1516 1516 1516 1516 1517
1541 1540 1540 1539 1538 1536 1534 1533 1531 1530 1529 1527 1526 1524 1523 1521 1521 1519 1518 1517 1516 1515 1515 1515 1515 1515 1515 1515 1515 1515 1515 1515 1515
1541 1541 1540 1539 1538 1536 1534 1533 1531 1529 1528 1527 1526 1524 1523 1521 1520 1519 1518 1517 1516 1516 1515 1515 1515 1515 1515 1515 1514 1514 1514 1514 1513
1541 1540 1540 1539 1538 1537 1535 1533 1531 1529 1528 1526 1525 1524 1523 1521 1520 1519 1518 1518 1518 1518 1517 1517 1516 1516 1516 1515 1515 1513 1513 1512 1512
1541 1541 1540 1538 1537 1536 1534 1532 1530 1529 1527 1526 1525 1524 1523 1522 1520 1519 1518 1518 1518 1517 1517 1516 1516 1515 1515 1514 1514 1513 1511 1511 1510
1541 1540 1539 1538 1537 1535 1534 1532 1530 1529 1527 1526 1525 1523 1523 1522 1521 1520 1519 1518 1518 1517 1516 1516 1515 1515 1515 1515 1513 1511 1510 1509 1508
1540 1540 1539 1538 1537 1535 1533 1532 1530 1529 1527 1526 1525 1523 1522 1522 1522 1520 1519 1518 1518 1517 1516 1516 1515 1514 1514 1514 1513 1511 1509 1508 1507
1540 1539 1538 1537 1536 1535 1533 1532 1531 1529 1527 1526 1525 1524 1522 1522 1522 1521 1520 1519 1518 1517 1516 1516 1515 1514 1513 1513 1513 1510 1508 1507 1506
1539 1539 1538 1537 1536 1535 1533 1532 1530 1529 1527 1526 1525 1524 1523 1522 1522 1522 1521 1520 1519 1518 1517 1516 1515 1514 1513 1512 1512 1510 1507 1506 1505
1538 1538 1537 1537 1536 1534 1533 1532 1530 1529 1527 1526 1525 1525 1524 1523 1522 1522 1521 1520 1519 1518 1517 1516 1515 1514 1512 1511 1511 1510 1508 1506 1505
1538 1537 1537 1536 1535 1534 1533 1531 1530 1529 1527 1526 1525 1526 1525 1524 1523 1522 1521 1520 1519 1518 1517 1515 1514 1513 1512 1511 1510 1510 1508 1507 1506
1537 1537 1536 1535 1535 1534 1532 1531 1530 1529 1527 1526 1525 1525 1525 1524 1524 1523 1522 1521 1520 1518 1516 1515 1513 1512 1511 1510 1509 1509 1508 1507 1505
1536 1536 1535 1535 1534 1533 1532 1531 1530 1529 1527 1526 1524 1525 1526 1525 1523 1522 1522 1521 1519 1518 1516 1514 1513 1511 1511 1510 1508 1507 1506 1505 1504
1535 1535 1535 1534 1533 1533 1532 1531 1530 1529 1528 1526 1526 1525 1524 1523 1523 1522 1521 1520 1519 1517 1515 1514 1512 1511 1510 1509 1508 1506 1505 1504 1503
1533 1534 1533 1533 1533 1532 1531 1530 1530 1529 1528 1527 1526 1526 1526 1525 1523 1522 1521 1520 1518 1516 1515 1513 1512 1510 1509 1509 1507 1506 1504 1503 1501
1532 1532 1532 1532 1532 1531 1530 1530 1529 1528 1527 1526 1526 1525 1524 1524 1524 1521 1520 1519 1517 1516 1514 1512 1511 1509 1508 1507 1506 1505 1503 1502 1500